Weather History for KCGE - May, 2013

Change the Weather History Date:

Wednesday, May 15, 2013

  Actual Average (KESN) Record (KESN)
Temperature  
Mean Temperature 65 °F -  
Max Temperature 77 °F 76 °F 95 °F (1962)
Min Temperature 53 °F 53 °F 42 °F (1955)
Growing Degree Days 15 (Base 50)    
Moisture  
Dew Point 52 °F    
Average Humidity 63    
Maximum Humidity 88    
Minimum Humidity 47    
Precipitation  
Precipitation 0.00 in - - ()
Sea Level Pressure  
Sea Level Pressure 29.89 in    
Wind  
Wind Speed 8 mph (South)    
Max Wind Speed 15 mph    
Max Gust Speed 23 mph    
Visibility 10 miles    
Events      
Averages and records for this station are not official NWS values.
T = Trace of Precipitation, MM = Missing Value Source: NWS Daily Summary

Daily Weather History Graph

Daily Weather History Graph

Search for Another Location

Airport or City:

Trip Planner

Search our weather history database for the weather conditions in past years. The results will help you decide how hot, cold, wet, or windy it might be!

Date:

Astronomy

May. 15, 2013 Rise Set
Actual Time 5:52 AM EDT 8:09 PM EDT
Civil Twilight 5:22 AM EDT 8:39 PM EDT
Nautical Twilight 4:45 AM EDT 9:15 PM EDT
Astronomical Twilight 4:05 AM EDT 9:56 PM EDT
Moon 10:25 AM EDT (5/15) No Moon Set
Length of Visible Light 15h 16m
Length of Day
14h 16m
Waxing Crescent, 26% of the Moon is Illuminated
May 15
Waxing Crescent
May 18
First Quarter
May 25
Full
May 31
Last Quarter
Jun 8
New

Hourly Weather History & Observations

Time (EDT) Temp. Dew Point Humidity Pressure Visibility Wind Dir Wind Speed Gust Speed Precip Events Conditions
12:19 AM 53.6 °F 42.8 °F 67% 30.08 in 10.0 mi SE 5.8 mph - N/A   Mostly Cloudy
12:39 AM 53.6 °F 42.8 °F 67% 30.08 in 10.0 mi SE 6.9 mph - N/A   Scattered Clouds
12:59 AM 53.6 °F 44.6 °F 72% 30.07 in 10.0 mi SE 8.1 mph - N/A   Scattered Clouds
1:19 AM 53.6 °F 44.6 °F 72% 30.06 in 10.0 mi SE 6.9 mph - N/A   Scattered Clouds
1:39 AM 53.6 °F 44.6 °F 72% 30.06 in 10.0 mi SE 8.1 mph - N/A   Scattered Clouds
1:59 AM 53.6 °F 44.6 °F 72% 30.05 in 10.0 mi SE 8.1 mph - N/A   Scattered Clouds
2:19 AM 53.6 °F 44.6 °F 72% 30.05 in 10.0 mi SE 8.1 mph - N/A   Scattered Clouds
2:39 AM 53.6 °F 46.4 °F 77% 30.05 in 10.0 mi ESE 8.1 mph - N/A   Scattered Clouds
2:59 AM 53.6 °F 46.4 °F 77% 30.04 in 10.0 mi SE 9.2 mph - N/A   Overcast
3:39 AM 53.6 °F 46.4 °F 77% 30.02 in 10.0 mi SE 10.4 mph - N/A   Mostly Cloudy
3:59 AM 53.6 °F 46.4 °F 77% 30.02 in 10.0 mi SE 10.4 mph - N/A   Mostly Cloudy
4:19 AM 53.6 °F 46.4 °F 77% 30.00 in 10.0 mi SE 9.2 mph - N/A   Scattered Clouds
4:39 AM 53.6 °F 46.4 °F 77% 29.99 in 10.0 mi SE 10.4 mph - N/A   Clear
4:59 AM 53.6 °F 48.2 °F 82% 29.99 in 10.0 mi SE 9.2 mph - N/A   Clear
5:19 AM 53.6 °F 48.2 °F 82% 29.98 in 10.0 mi SE 10.4 mph - N/A   Scattered Clouds
5:39 AM 55.4 °F 50.0 °F 82% 29.98 in 10.0 mi SSE 9.2 mph - N/A   Clear
5:59 AM 53.6 °F 48.2 °F 82% 29.98 in 10.0 mi SSE 8.1 mph - N/A   Clear
6:39 AM 55.4 °F 50.0 °F 82% 29.97 in 10.0 mi SSE 5.8 mph - N/A   Clear
7:00 AM 55.4 °F 51.8 °F 88% 29.98 in 10.0 mi SSE 6.9 mph - N/A   Clear
7:20 AM 59.0 °F 53.6 °F 82% 29.98 in 10.0 mi SE 3.5 mph - N/A   Clear
7:40 AM 60.8 °F 50.0 °F 68% 29.98 in 10.0 mi South 5.8 mph - N/A   Clear
8:00 AM 62.6 °F 44.6 °F 52% 29.97 in 10.0 mi South 8.1 mph - N/A   Clear
8:20 AM 62.6 °F 44.6 °F 52% 29.96 in 10.0 mi South 6.9 mph - N/A   Clear
8:40 AM 62.6 °F 44.6 °F 52% 29.96 in 10.0 mi South 10.4 mph - N/A   Clear
9:00 AM 64.4 °F 44.6 °F 49% 29.95 in 10.0 mi SSW 11.5 mph 16.1 mph N/A   Clear
9:20 AM 62.6 °F 44.6 °F 52% 29.95 in 10.0 mi South 11.5 mph - N/A   Clear
9:40 AM 62.6 °F 46.4 °F 55% 29.95 in 10.0 mi SW 10.4 mph - N/A   Clear
10:00 AM 62.6 °F 46.4 °F 55% 29.96 in 10.0 mi SW 8.1 mph - N/A   Clear
10:20 AM 64.4 °F 46.4 °F 52% 29.95 in 10.0 mi South 6.9 mph - N/A   Clear
10:40 AM 62.6 °F 46.4 °F 55% 29.95 in 10.0 mi SW 8.1 mph - N/A   Clear
11:00 AM 62.6 °F 46.4 °F 55% 29.94 in 10.0 mi SSW 5.8 mph - N/A   Clear
11:20 AM 68.0 °F 50.0 °F 52% 29.93 in 10.0 mi South 8.1 mph - N/A   Clear
11:40 AM 68.0 °F 50.0 °F 52% 29.92 in 10.0 mi South 10.4 mph - N/A   Clear
12:00 PM 69.8 °F 50.0 °F 49% 29.89 in 10.0 mi SSW 9.2 mph 16.1 mph N/A   Clear
12:20 PM 69.8 °F 50.0 °F 49% 29.88 in 10.0 mi South 12.7 mph 18.4 mph N/A   Clear
12:40 PM 69.8 °F 50.0 °F 49% 29.89 in 10.0 mi South 10.4 mph 16.1 mph N/A   Clear
1:00 PM 71.6 °F 51.8 °F 50% 29.87 in 10.0 mi SSW 10.4 mph 18.4 mph N/A   Clear
1:20 PM 71.6 °F 51.8 °F 50% 29.90 in 10.0 mi SSW 8.1 mph 16.1 mph N/A   Clear
1:40 PM 69.8 °F 51.8 °F 53% 29.89 in 10.0 mi SSW 10.4 mph 16.1 mph N/A   Clear
2:00 PM 71.6 °F 53.6 °F 53% 29.89 in 10.0 mi South 9.2 mph - N/A   Clear
2:20 PM 71.6 °F 53.6 °F 53% 29.87 in 10.0 mi South 9.2 mph - N/A   Clear
2:40 PM 73.4 °F 55.4 °F 53% 29.84 in 10.0 mi SSE 12.7 mph 18.4 mph N/A   Clear
3:00 PM 73.4 °F 55.4 °F 53% 29.82 in 10.0 mi SSE 15.0 mph 20.7 mph N/A   Clear
3:20 PM 73.4 °F 55.4 °F 53% 29.85 in 10.0 mi SE 6.9 mph - N/A   Clear
3:41 PM 77.0 °F 55.4 °F 47% 29.84 in 10.0 mi South 5.8 mph - N/A   Clear
4:01 PM 77.0 °F 57.2 °F 50% 29.82 in 10.0 mi South 8.1 mph - N/A   Clear
4:21 PM 77.0 °F 57.2 °F 50% 29.80 in 10.0 mi South 8.1 mph - N/A   Clear
4:41 PM 77.0 °F 59.0 °F 54% 29.79 in 10.0 mi SSE 10.4 mph - N/A   Clear
5:01 PM 77.0 °F 57.2 °F 50% 29.77 in 10.0 mi SSE 12.7 mph 19.6 mph N/A   Clear
5:21 PM 77.0 °F 57.2 °F 50% 29.75 in 10.0 mi South 13.8 mph 21.9 mph N/A   Clear
5:41 PM 77.0 °F 57.2 °F 50% 29.74 in 10.0 mi South 13.8 mph 20.7 mph N/A   Clear
6:01 PM 77.0 °F 59.0 °F 54% 29.73 in 10.0 mi South 12.7 mph 23.0 mph N/A   Clear
6:21 PM 77.0 °F 59.0 °F 54% 29.72 in 10.0 mi South 10.4 mph - N/A   Clear
7:01 PM 73.4 °F 60.8 °F 65% 29.71 in 10.0 mi South 6.9 mph - N/A   Clear
7:21 PM 73.4 °F 60.8 °F 65% 29.71 in 10.0 mi SSE 8.1 mph - N/A   Clear
7:41 PM 73.4 °F 60.8 °F 65% 29.71 in 10.0 mi South 6.9 mph - N/A   Clear
8:01 PM 73.4 °F 60.8 °F 65% 29.72 in 10.0 mi South 8.1 mph - N/A   Clear
8:21 PM 73.4 °F 62.6 °F 69% 29.72 in 10.0 mi South 6.9 mph - N/A   Clear
8:41 PM 73.4 °F 62.6 °F 69% 29.73 in 10.0 mi South 4.6 mph - N/A   Clear
9:01 PM 71.6 °F 60.8 °F 69% 29.73 in 10.0 mi South 3.5 mph - N/A   Clear
9:21 PM 69.8 °F 60.8 °F 73% 29.74 in 10.0 mi South 3.5 mph - N/A   Clear
10:01 PM 69.8 °F 60.8 °F 73% 29.75 in 10.0 mi SSW 3.5 mph - N/A   Clear
10:21 PM 73.4 °F 60.8 °F 65% 29.75 in 10.0 mi SSW 3.5 mph - N/A   Clear
10:41 PM 73.4 °F 60.8 °F 65% 29.75 in 10.0 mi Calm Calm - N/A   Clear
11:01 PM 71.6 °F 60.8 °F 69% 29.75 in 10.0 mi Calm Calm - N/A   Clear
11:21 PM 71.6 °F 60.8 °F 69% 29.75 in 10.0 mi Calm Calm - N/A   Clear
11:41 PM 71.6 °F 60.8 °F 69% 29.75 in 10.0 mi SW 3.5 mph - N/A   Clear